Location: Igloolik
(69.3800°N, 81.8000°W)
Time: 23:26:16
(UTC-05:00)

Amateur Radio Satellites - All Passes

Search period start: 22 October 2017 22:56
Search period end: 23 October 2017 22:56
Location: Igloolik, 69.3800°N, 81.8000°W

Satellite Date Start Highest point End Downlink Frequencies (MHz)
Time Altitude Azimuth
RS-15 22 Oct 22:58:19 23:06:51 23° 97° (E) 23:15:17 29.354- 29.394
STARS 22 Oct 23:01:46 23:04:55 19° 347° (NNW) 23:08:04 437.465
MOZHAYETS 4 22 Oct 23:04:35 23:08:12 23° 25° (NNE) 23:11:48
DX 1 22 Oct 23:04:52 23:09:00 44° 48° (NE) 23:13:10 434.975-435.025
QB50P2 22 Oct 23:16:17 23:19:25 19° 83° (E) 23:22:33 145.880/145.840
O/OREOS (USA 219) 22 Oct 23:16:31 23:21:09 82° 334° (NNW) 23:25:49 437.305
NANOSAT C BR1 22 Oct 23:16:41 23:19:36 18° 81° (E) 23:22:29 145.865
LO-87 22 Oct 23:17:16 23:20:29 29° 266° (W) 23:23:46 145.935 - 145.965
50 SAT 22 Oct 23:18:29 23:21:36 42° 55° (NE) 23:24:46 437.505
FO-29 22 Oct 23:18:31 23:24:50 69° 305° (NW) 23:31:59 435.910
UKube-1 22 Oct 23:23:03 23:27:09 44° 48° (NE) 23:31:17 .
CUBESAT XI-V 22 Oct 23:23:52 23:27:08 19° 14° (NNE) 23:30:23 437.345
DUCHIFAT 1 22 Oct 23:25:47 23:28:47 18° 82° (E) 23:31:46 145.980
YUBILEINY 22 Oct 23:38:06 23:43:52 20° 308° (NW) 23:49:38 435.215
VELOX 1 22 Oct 23:43:33 23:47:58 69° 251° (WSW) 23:52:24 145.980
STRAND 1 22 Oct 23:44:14 23:48:40 30° 332° (NNW) 23:53:06 437.568
AIST 2D 22 Oct 23:58:24 00:01:48 47° 103° (ESE) 00:05:11 435.315
ITUPSAT 1 22 Oct 23:59:18 00:03:37 33° 36° (NE) 00:07:56 437.325
UNISAT 6 23 Oct 00:04:18 00:08:56 60° 303° (WNW) 00:13:29 437.425
ESTCUBE 1 23 Oct 00:08:09 00:11:49 24° 273° (W) 00:15:30 437.505/2401.250
KKS-1 23 Oct 00:12:06 00:15:18 20° 13° (NNE) 00:18:31 437.445
BEESAT 23 Oct 00:12:44 00:17:07 37° 40° (NE) 00:21:31 436.000
SPROUT 23 Oct 00:13:42 00:17:48 41° 262° (W) 00:21:55 437.525
PRISM 23 Oct 00:17:38 00:21:46 74° 298° (WNW) 00:25:54 437.425
TIGRISAT 23 Oct 00:18:20 00:22:56 54° 306° (NW) 00:27:25 435.000
EO-79 23 Oct 00:25:40 00:29:46 41° 99° (E) 00:33:50 145.935-145.965
POLYITAN 1 23 Oct 00:31:13 00:35:23 44° 100° (E) 00:39:29 437.675
Oscar 19 23 Oct 00:33:21 00:36:52 18° 78° (ENE) 00:40:22 437.125/150
STARS 23 Oct 00:37:00 00:40:05 19° 10° (N) 00:43:11 437.465
MOZHAYETS 4 23 Oct 00:40:12 00:44:35 43° 48° (NE) 00:48:57
DX 1 23 Oct 00:40:47 00:45:08 67° 251° (WSW) 00:49:30 434.975-435.025
50 SAT 23 Oct 00:50:45 00:53:57 46° 256° (WSW) 00:57:10 437.505
QB50P2 23 Oct 00:51:47 00:56:04 60° 106° (ESE) 01:00:18 145.880/145.840
NANOSAT C BR1 23 Oct 00:52:00 00:56:13 54° 104° (ESE) 01:00:25 145.865
O/OREOS (USA 219) 23 Oct 00:56:19 01:00:56 63° 359° (N) 01:05:32 437.305
BUGSAT 1 23 Oct 00:57:22 01:01:05 28° 92° (E) 01:04:46 437.445
AO-7 23 Oct 00:57:56 01:01:11 12° 55° (NE) 01:04:26 .
UKube-1 23 Oct 00:58:48 01:03:07 67° 251° (WSW) 01:07:27 .
CUBESAT XI-V 23 Oct 00:59:29 01:03:30 30° 37° (NE) 01:07:31 437.345
DUCHIFAT 1 23 Oct 01:01:06 01:05:20 57° 105° (ESE) 01:09:32 145.980
FO-29 23 Oct 01:03:39 01:09:21 39° 329° (NNW) 01:15:43 435.910
RS-15 23 Oct 01:04:54 01:16:10 45° 127° (SE) 01:27:12 29.354- 29.394
VELOX 1 23 Oct 01:21:40 01:25:10 23° 273° (W) 01:28:42 145.980
STRAND 1 23 Oct 01:22:46 01:26:44 23° 356° (N) 01:30:43 437.568
Gurwin Techsat 1B 23 Oct 01:27:18 01:31:50 27° 87° (E) 01:36:22 435.225
AIST 2D 23 Oct 01:31:41 01:35:02 43° 304° (NW) 01:38:21 435.315
M-CUBED/EXP-1 PRIME 23 Oct 01:33:06 01:34:41 13° 93° (E) 01:36:18 437.505
YUBILEINY 23 Oct 01:35:21 01:37:04 11° 338° (NNW) 01:38:47 435.215
ITUPSAT 1 23 Oct 01:36:13 01:41:02 74° 60° (ENE) 01:45:53 437.325
UNISAT 6 23 Oct 01:41:06 01:45:04 28° 327° (NNW) 01:49:00 437.425
KKS-1 23 Oct 01:47:00 01:50:54 30° 36° (NE) 01:54:50 437.445
BEESAT 23 Oct 01:49:45 01:54:35 85° 64° (ENE) 01:59:26 436.000
SPROUT 23 Oct 01:52:38 01:54:51 14° 284° (WNW) 01:57:04 437.525
PRISM 23 Oct 01:53:06 01:56:39 29° 321° (NW) 02:00:14 437.425
TIGRISAT 23 Oct 01:55:05 01:58:58 26° 329° (NNW) 02:02:49 435.000
EO-79 23 Oct 02:01:31 02:05:47 64° 301° (WNW) 02:10:01 145.935-145.965
POLYITAN 1 23 Oct 02:07:07 02:11:22 60° 302° (WNW) 02:15:35 437.675
STARS 23 Oct 02:11:39 02:15:25 28° 34° (NNE) 02:19:12 437.465
Oscar 19 23 Oct 02:12:25 02:17:26 49° 102° (ESE) 02:22:25 437.125/150
MOZHAYETS 4 23 Oct 02:17:00 02:21:38 73° 250° (WSW) 02:26:18
DX 1 23 Oct 02:18:43 02:22:06 22° 273° (W) 02:25:31 434.975-435.025
50 SAT 23 Oct 02:25:37 02:27:03 12° 278° (W) 02:28:30 437.505
QB50P2 23 Oct 02:27:43 02:31:51 46° 309° (NW) 02:35:57 145.880/145.840
NANOSAT C BR1 23 Oct 02:27:51 02:32:00 50° 307° (NW) 02:36:08 145.865
BUGSAT 1 23 Oct 02:32:40 02:36:59 89° 125° (SE) 02:41:13 437.445
CUBESAT XI-V 23 Oct 02:35:49 02:40:26 70° 61° (ENE) 02:45:02 437.345
O/OREOS (USA 219) 23 Oct 02:36:03 02:40:42 79° 22° (NNE) 02:45:21 437.305
UKube-1 23 Oct 02:36:34 02:39:55 21° 273° (W) 02:43:17 .
DUCHIFAT 1 23 Oct 02:36:55 02:41:02 48° 307° (NW) 02:45:08 145.980
FO-29 23 Oct 02:48:10 02:53:17 30° 354° (N) 02:58:58 435.910
AO-7 23 Oct 02:50:19 02:57:22 29° 83° (E) 03:04:24 .
ITAMSAT 1 23 Oct 02:51:22 02:55:13 20° 81° (E) 02:59:04 435.822/435.867
STRAND 1 23 Oct 03:00:31 03:04:46 26° 20° (NNE) 03:09:01 437.568
AIST 2D 23 Oct 03:05:12 03:07:35 18° 326° (NW) 03:09:59 435.315
M-CUBED/EXP-1 PRIME 23 Oct 03:06:40 03:09:56 43° 114° (ESE) 03:13:25 437.505
Gurwin Techsat 1B 23 Oct 03:07:18 03:12:40 72° 110° (ESE) 03:18:01 435.225
ITUPSAT 1 23 Oct 03:14:42 03:19:15 40° 262° (W) 03:23:49 437.325
RS-15 23 Oct 03:15:04 03:27:11 66° 157° (SSE) 03:38:56 29.354- 29.394
UNISAT 6 23 Oct 03:17:25 03:20:42 19° 350° (N) 03:23:57 437.425
KKS-1 23 Oct 03:22:34 03:27:01 71° 60° (ENE) 03:31:31 437.445
PRISM 23 Oct 03:28:17 03:31:00 17° 344° (NNW) 03:33:44 437.425
BEESAT 23 Oct 03:28:30 03:32:53 34° 265° (W) 03:37:17 436.000
TIGRISAT 23 Oct 03:31:18 03:34:33 19° 352° (N) 03:37:45 435.000
EO-79 23 Oct 03:37:25 03:41:03 27° 324° (NW) 03:44:39 145.935-145.965
POLYITAN 1 23 Oct 03:43:02 03:46:37 26° 325° (NW) 03:50:11 437.675
STARS 23 Oct 03:46:52 03:51:14 62° 57° (ENE) 03:55:40 437.465
Oscar 19 23 Oct 03:51:55 03:57:01 65° 305° (NW) 04:02:07 437.125/150
MOZHAYETS 4 23 Oct 03:55:44 03:59:33 25° 273° (W) 04:03:22
QB50P2 23 Oct 04:03:36 04:06:58 22° 331° (NNW) 04:10:17 145.880/145.840
DOVE 4 23 Oct 04:03:38 04:06:56 18° 78° (ENE) 04:10:20 437.250
NANOSAT C BR1 23 Oct 04:03:40 04:07:05 23° 329° (NNW) 04:10:28 145.865
BUGSAT 1 23 Oct 04:08:11 04:12:04 34° 316° (NW) 04:15:55 437.445
DUCHIFAT 1 23 Oct 04:12:41 04:16:03 23° 330° (NNW) 04:19:24 145.980
CUBESAT XI-V 23 Oct 04:13:47 04:18:09 40° 263° (W) 04:22:31 437.345
O/OREOS (USA 219) 23 Oct 04:15:34 04:20:05 52° 227° (SW) 04:24:34 437.305
ITAMSAT 1 23 Oct 04:30:41 04:35:51 54° 104° (ESE) 04:41:00 435.822/435.867
FO-29 23 Oct 04:31:57 04:37:06 33° 20° (NNE) 04:42:50 435.910
STRAND 1 23 Oct 04:38:14 04:43:08 45° 44° (NE) 04:48:03 437.568
AIST 2D 23 Oct 04:38:43 04:39:42 11° 349° (N) 04:40:40 435.315
M-CUBED/EXP-1 PRIME 23 Oct 04:41:14 04:44:32 55° 316° (NW) 04:48:03 437.505
AO-7 23 Oct 04:43:38 04:51:54 62° 110° (ESE) 05:00:08 .
Gurwin Techsat 1B 23 Oct 04:47:25 04:52:34 49° 314° (NW) 04:57:42 435.225
UNISAT 6 23 Oct 04:52:49 04:56:10 20° 13° (NNE) 04:59:29 437.425
ITUPSAT 1 23 Oct 04:55:48 04:58:24 14° 285° (WNW) 05:01:01 437.325
KKS-1 23 Oct 04:59:43 05:03:55 39° 262° (W) 05:08:09 437.445
PRISM 23 Oct 05:02:37 05:05:07 16° 7° (N) 05:07:38 437.425
TIGRISAT 23 Oct 05:06:35 05:09:59 20° 16° (NNE) 05:13:22 435.000
BEESAT 23 Oct 05:10:15 05:12:08 12° 289° (WNW) 05:14:02 436.000
XW-2C 23 Oct 05:10:34 05:12:29 13° 79° (ENE) 05:14:23 145.795 - 145.815
EO-79 23 Oct 05:12:59 05:15:48 17° 347° (NNW) 05:18:37 145.935-145.965
HO-68 23 Oct 05:17:36 05:21:50 16° 65° (ENE) 05:26:03 435.675
YUBILEINY 23 Oct 05:18:10 05:22:19 14° 38° (NE) 05:26:29 435.215
POLYITAN 1 23 Oct 05:18:34 05:21:22 17° 349° (NNW) 05:24:09 437.675
CUTE-I 23 Oct 05:21:46 05:25:36 19° 78° (ENE) 05:29:27 437.470
STARS 23 Oct 05:23:33 05:27:49 45° 259° (W) 05:32:07 437.465
RS-15 23 Oct 05:26:52 05:39:04 72° 188° (S) 05:50:46 29.354- 29.394
Oscar 19 23 Oct 05:31:17 05:35:50 32° 328° (NNW) 05:40:21 437.125/150
QB50P2 23 Oct 05:38:57 05:41:37 16° 355° (N) 05:44:19 145.880/145.840
NANOSAT C BR1 23 Oct 05:39:01 05:41:43 16° 352° (N) 05:44:23 145.865
DOVE 4 23 Oct 05:41:00 05:45:42 49° 100° (E) 05:50:39 437.250
BUGSAT 1 23 Oct 05:43:32 05:46:33 19° 339° (NNW) 05:49:35 437.445
KAITUO 1B 23 Oct 05:45:11 05:47:45 18° 84° (E) 05:50:18 145.475/437.950
NO-84 23 Oct 05:46:51 05:48:07 11° 181° (S) 05:49:23 435.350 FM
DUCHIFAT 1 23 Oct 05:47:58 05:50:37 16° 353° (N) 05:53:16 145.980
XW-2F 23 Oct 05:52:10 05:55:08 22° 88° (E) 05:58:05 145.980 - 146.000
NUDT-PHONESAT 23 Oct 05:54:06 05:56:49 19° 86° (E) 05:59:31 437.300
CUBESAT XI-V 23 Oct 05:54:23 05:56:48 14° 286° (WNW) 05:59:12 437.345
O/OREOS (USA 219) 23 Oct 05:55:19 05:58:43 20° 251° (WSW) 06:02:06 437.305
LilacSat-2 23 Oct 06:03:55 06:07:13 27° 92° (E) 06:10:29 437.200
XW-2D 23 Oct 06:07:00 06:10:16 28° 92° (E) 06:13:33 145.860 - 145.880
ITAMSAT 1 23 Oct 06:10:20 06:15:31 62° 307° (NW) 06:20:43 435.822/435.867
AIST 2D 23 Oct 06:10:38 06:11:38 11° 12° (NNE) 06:12:38 435.315
SO-50 23 Oct 06:11:05 06:12:33 11° 120° (ESE) 06:14:01 436.795
FO-29 23 Oct 06:15:46 06:21:19 54° 45° (NE) 06:27:34 435.910
M-CUBED/EXP-1 PRIME 23 Oct 06:15:48 06:18:37 25° 337° (NNW) 06:21:32 437.505
STRAND 1 23 Oct 06:16:59 06:22:10 80° 247° (WSW) 06:27:24 437.568
XW-2B 23 Oct 06:20:32 06:23:58 32° 95° (E) 06:27:23 145.730 - 145.750
Gurwin Techsat 1B 23 Oct 06:27:16 06:31:45 28° 338° (NNW) 06:36:15 435.225
UNISAT 6 23 Oct 06:27:45 06:31:51 30° 37° (NE) 06:35:56 437.425
PRISM 23 Oct 06:36:07 06:39:20 23° 30° (NNE) 06:42:34 437.425
AO-7 23 Oct 06:36:48 06:45:05 75° 316° (NW) 06:53:23 .
KKS-1 23 Oct 06:39:32 06:41:44 13° 285° (WNW) 06:43:56 437.445
TIGRISAT 23 Oct 06:41:30 06:45:41 32° 39° (NE) 06:49:51 435.000
XW-2C 23 Oct 06:43:57 06:47:36 45° 101° (E) 06:51:14 145.795 - 145.815
EO-79 23 Oct 06:47:35 06:50:20 17° 11° (N) 06:53:06 145.935-145.965
POLYITAN 1 23 Oct 06:53:08 06:55:56 17° 12° (NNE) 06:58:44 437.675
CUTE-I 23 Oct 07:01:39 07:06:55 51° 103° (ESE) 07:12:10 437.470
STARS 23 Oct 07:02:39 07:05:15 15° 282° (WNW) 07:07:54 437.465
CUBEBUG 2 23 Oct 07:03:27 07:07:22 25° 86° (E) 07:11:12 437.445
HO-68 23 Oct 07:05:15 07:11:55 37° 92° (E) 07:18:32 435.675
ZACube-1 23 Oct 07:05:53 07:08:18 14° 74° (ENE) 07:10:41 437.345
CUTE 1.7 + AOD 2 23 Oct 07:06:47 07:10:31 30° 92° (E) 07:14:16 437.475
SEEDS 23 Oct 07:07:47 07:11:14 24° 88° (E) 07:14:39 437.485
YUBILEINY 23 Oct 07:09:07 07:16:11 29° 67° (ENE) 07:23:18 435.215
Oscar 19 23 Oct 07:10:07 07:14:07 23° 352° (N) 07:18:05 437.125/150
QB50P2 23 Oct 07:13:16 07:16:13 18° 18° (NNE) 07:19:11 145.880/145.840
NANOSAT C BR1 23 Oct 07:13:20 07:16:12 18° 16° (NNE) 07:19:05 145.865
BUGSAT 1 23 Oct 07:18:06 07:20:44 16° 2° (N) 07:23:22 437.445
KAITUO 1B 23 Oct 07:18:45 07:22:27 62° 107° (ESE) 07:26:08 145.475/437.950
DOVE 4 23 Oct 07:18:51 07:23:36 63° 302° (WNW) 07:28:38 437.250
AAUSAT CUBESAT 2 23 Oct 07:22:09 07:25:11 19° 84° (E) 07:28:13 437.432
DUCHIFAT 1 23 Oct 07:22:11 07:25:04 18° 17° (NNE) 07:27:58 145.980
XW-2F 23 Oct 07:26:04 07:29:51 79° 112° (ESE) 07:33:34 145.980 - 146.000
NUDT-PHONESAT 23 Oct 07:27:39 07:31:20 69° 108° (ESE) 07:35:01 437.300
UWE-3 23 Oct 07:34:57 07:38:52 27° 88° (E) 07:42:42 435.000/436.395/437.385
Oscar 11 23 Oct 07:36:59 07:39:35 15° 78° (ENE) 07:42:10 .
LilacSat-2 23 Oct 07:38:07 07:41:56 83° 294° (WNW) 07:45:42 437.200
RS-15 23 Oct 07:38:53 07:50:35 56° 219° (SW) 08:01:47 29.354- 29.394
XW-2D 23 Oct 07:41:05 07:44:53 81° 294° (WNW) 07:48:38 145.860 - 145.880
AIST 2D 23 Oct 07:41:20 07:43:44 18° 34° (NE) 07:46:10 435.315
SO-50 23 Oct 07:47:58 07:51:44 26° 143° (SE) 07:55:32 436.795
ITAMSAT 1 23 Oct 07:49:49 07:54:26 32° 331° (NNW) 07:59:02 435.822/435.867
M-CUBED/EXP-1 PRIME 23 Oct 07:49:55 07:52:22 19° 359° (N) 07:54:52 437.505
XW-2B 23 Oct 07:54:42 07:58:28 69° 298° (WNW) 08:02:12 145.730 - 145.750
STRAND 1 23 Oct 07:57:36 08:02:06 29° 271° (W) 08:06:38 437.568
FO-29 23 Oct 08:00:46 08:06:24 71° 252° (WSW) 08:12:47 435.910
UNISAT 6 23 Oct 08:03:22 08:08:04 67° 59° (ENE) 08:12:45 437.425
Gurwin Techsat 1B 23 Oct 08:06:24 08:10:33 24° 2° (N) 08:14:44 435.225
PRISM 23 Oct 08:10:03 08:14:00 49° 53° (NE) 08:17:59 437.425
XW-2A 23 Oct 08:11:29 08:14:38 35° 99° (E) 08:17:46 145.665 - 145.685
TIGRISAT 23 Oct 08:17:14 08:21:58 75° 61° (ENE) 08:26:41 435.000
AO-73 23 Oct 08:17:28 08:21:23 30° 91° (E) 08:25:13 145.935
XW-2C 23 Oct 08:18:14 08:21:55 51° 303° (WNW) 08:25:34 145.795 - 145.815
DELFI C3 23 Oct 08:21:17 08:22:35 11° 74° (ENE) 08:23:53 145.870
EO-79 23 Oct 08:21:32 08:25:03 25° 34° (NNE) 08:28:36 145.935-145.965
PCSat 23 Oct 08:23:21 08:27:47 26° 126° (SE) 08:32:14 145.827
POLYITAN 1 23 Oct 08:27:06 08:30:42 26° 35° (NE) 08:34:17 437.675
AO-7 23 Oct 08:29:24 08:37:19 51° 343° (NNW) 08:45:15 .
Max Valier Satellite 23 Oct 08:35:35 08:36:14 10° 74° (ENE) 08:36:54 145.860
CUBEBUG 2 23 Oct 08:39:58 08:44:44 74° 109° (ESE) 08:49:22 437.445
ZACube-1 23 Oct 08:41:31 08:45:47 42° 98° (E) 08:49:57 437.345
CUTE-I 23 Oct 08:41:53 08:47:14 66° 306° (NW) 08:52:34 437.470
CUTE 1.7 + AOD 2 23 Oct 08:42:35 08:46:50 84° 295° (WNW) 08:51:03 437.475
SEEDS 23 Oct 08:43:21 08:47:33 79° 110° (ESE) 08:51:44 437.485
NANOSAT C BR1 23 Oct 08:47:15 08:50:57 29° 39° (NE) 08:54:40 145.865
QB50P2 23 Oct 08:47:17 08:51:05 31° 41° (NE) 08:54:54 145.880/145.840
Oscar 19 23 Oct 08:48:08 08:52:16 25° 16° (NNE) 08:56:22 437.125/150
BUGSAT 1 23 Oct 08:51:45 08:54:57 21° 25° (NNE) 08:58:10 437.445
KAITUO 1B 23 Oct 08:52:54 08:56:22 38° 308° (NW) 08:59:49 145.475/437.950
HO-68 23 Oct 08:53:22 09:00:38 81° 117° (ESE) 09:07:54 435.675
DUCHIFAT 1 23 Oct 08:56:04 08:59:48 30° 40° (NE) 09:03:31 145.980
DOVE 4 23 Oct 08:56:41 09:00:47 29° 324° (NW) 09:05:04 437.250
AAUSAT CUBESAT 2 23 Oct 08:57:20 09:01:26 63° 106° (ESE) 09:05:33 437.432
XW-2F 23 Oct 09:00:23 09:03:46 32° 312° (NW) 09:07:08 145.980 - 146.000
NUDT-PHONESAT 23 Oct 09:01:41 09:05:04 35° 310° (NW) 09:08:26 437.300
YUBILEINY 23 Oct 09:03:01 09:11:32 61° 94° (E) 09:20:08 435.215
UWE-3 23 Oct 09:11:21 09:16:00 81° 111° (ESE) 09:20:30 435.000/436.395/437.385
Oscar 11 23 Oct 09:12:35 09:16:47 47° 101° (E) 09:20:57 .
LilacSat-2 23 Oct 09:12:37 09:15:53 28° 317° (NW) 09:19:08 437.200
AIST 2D 23 Oct 09:12:58 09:16:19 44° 56° (ENE) 09:19:41 435.315
XW-2D 23 Oct 09:15:30 09:18:44 27° 317° (NW) 09:21:57 145.860 - 145.880
M-CUBED/EXP-1 PRIME 23 Oct 09:23:21 09:26:05 25° 22° (NNE) 09:28:54 437.505
SO-50 23 Oct 09:27:12 09:31:30 43° 166° (SSE) 09:35:50 436.795
ITAMSAT 1 23 Oct 09:28:43 09:32:51 24° 355° (N) 09:36:58 435.822/435.867
XW-2B 23 Oct 09:29:07 09:32:14 25° 320° (NW) 09:35:20 145.730 - 145.750
UNISAT 6 23 Oct 09:40:33 09:45:03 43° 262° (W) 09:49:34 437.425
STRAND 1 23 Oct 09:41:53 09:43:04 11° 295° (WNW) 09:44:16 437.568
XW-2A 23 Oct 09:44:12 09:47:32 55° 301° (WNW) 09:50:49 145.665 - 145.685
Gurwin Techsat 1B 23 Oct 09:44:49 09:49:23 30° 26° (NNE) 09:53:58 435.225
PRISM 23 Oct 09:45:20 09:49:20 53° 255° (WSW) 09:53:23 437.425
FO-29 23 Oct 09:47:52 09:52:42 28° 278° (W) 09:58:02 435.910
EO-88 23 Oct 09:50:26 09:53:26 23° 90° (E) 09:56:24 145.990 - 145.960
RS-15 23 Oct 09:50:44 10:00:43 32° 249° (WSW) 10:10:20 29.354- 29.394
XW-2C 23 Oct 09:52:40 09:55:31 21° 325° (NW) 09:58:22 145.795 - 145.815
AO-73 23 Oct 09:53:40 09:58:10 88° 290° (WNW) 10:02:31 145.935
TIGRISAT 23 Oct 09:54:35 09:59:01 39° 264° (W) 10:03:27 435.000
DELFI C3 23 Oct 09:54:47 09:58:28 36° 97° (E) 10:02:10 145.870
EO-79 23 Oct 09:56:03 10:00:15 57° 57° (ENE) 10:04:30 145.935-145.965
POLYITAN 1 23 Oct 10:01:42 10:05:57 61° 57° (ENE) 10:10:13 437.675
PCSat 23 Oct 10:05:07 10:10:22 51° 150° (SSE) 10:15:38 145.827
Max Valier Satellite 23 Oct 10:07:44 10:11:10 35° 97° (E) 10:14:35 145.860
ESTCUBE 1 23 Oct 10:08:28 10:10:18 12° 72° (ENE) 10:12:08 437.505/2401.250
CUBEBUG 2 23 Oct 10:16:44 10:21:13 43° 312° (NW) 10:25:36 437.445
ZACube-1 23 Oct 10:17:52 10:22:20 65° 301° (WNW) 10:26:40 437.345
CUTE 1.7 + AOD 2 23 Oct 10:18:37 10:22:22 31° 317° (NW) 10:26:05 437.475
SEEDS 23 Oct 10:19:13 10:23:03 36° 313° (NW) 10:26:54 437.485
AO-7 23 Oct 10:21:17 10:29:08 49° 9° (N) 10:36:59 .
CUTE-I 23 Oct 10:21:58 10:26:44 34° 329° (NNW) 10:31:31 437.470
NANOSAT C BR1 23 Oct 10:21:59 10:26:15 72° 62° (ENE) 10:30:33 145.865
QB50P2 23 Oct 10:22:12 10:26:32 80° 62° (ENE) 10:30:51 145.880/145.840
BUGSAT 1 23 Oct 10:25:33 10:29:33 41° 48° (NE) 10:33:34 437.445
Oscar 19 23 Oct 10:25:54 10:30:42 40° 40° (NE) 10:35:28 437.125/150
KAITUO 1B 23 Oct 10:27:08 10:29:39 17° 331° (NNW) 10:32:08 145.475/437.950
LO-87 23 Oct 10:29:34 10:31:46 15° 82° (E) 10:33:57 145.935 - 145.965
DUCHIFAT 1 23 Oct 10:30:48 10:35:04 75° 62° (ENE) 10:39:22 145.980
AAUSAT CUBESAT 2 23 Oct 10:32:56 10:36:51 43° 308° (NW) 10:40:46 437.432
DOVE 4 23 Oct 10:34:05 10:37:24 19° 348° (NNW) 10:40:52 437.250
XW-2F 23 Oct 10:34:43 10:37:04 16° 335° (NNW) 10:39:26 145.980 - 146.000
NUDT-PHONESAT 23 Oct 10:35:48 10:38:10 17° 333° (NNW) 10:40:33 437.300
HO-68 23 Oct 10:41:16 10:48:17 56° 322° (NW) 10:55:17 435.675
AIST 2D 23 Oct 10:46:09 10:49:33 47° 258° (WSW) 10:52:58 435.315
LilacSat-2 23 Oct 10:47:03 10:49:16 15° 339° (NNW) 10:51:28 437.200
UWE-3 23 Oct 10:47:57 10:52:15 39° 314° (NW) 10:56:26 435.000/436.395/437.385
Oscar 11 23 Oct 10:48:50 10:53:06 57° 303° (WNW) 10:57:20 .
XW-2D 23 Oct 10:49:50 10:52:00 15° 340° (NNW) 10:54:10 145.860 - 145.880
M-CUBED/EXP-1 PRIME 23 Oct 10:56:56 11:00:09 55° 45° (NE) 11:03:26 437.505
YUBILEINY 23 Oct 10:59:44 11:08:27 70° 302° (WNW) 11:17:17 435.215
XW-2B 23 Oct 11:03:25 11:05:27 14° 342° (NNW) 11:07:29 145.730 - 145.750
ITAMSAT 1 23 Oct 11:06:50 11:11:10 27° 19° (NNE) 11:15:31 435.822/435.867
SO-50 23 Oct 11:07:09 11:11:29 45° 189° (S) 11:15:53 436.795
XW-2A 23 Oct 11:17:13 11:19:45 20° 322° (NW) 11:22:15 145.665 - 145.685
VELOX 1 23 Oct 11:19:57 11:21:33 12° 72° (ENE) 11:23:09 145.980
UNISAT 6 23 Oct 11:20:09 11:22:58 15° 285° (WNW) 11:25:47 437.425
PRISM 23 Oct 11:22:51 11:25:31 17° 278° (W) 11:28:12 437.425
Gurwin Techsat 1B 23 Oct 11:23:28 11:28:39 55° 50° (NE) 11:33:53 435.225
EO-88 23 Oct 11:23:54 11:27:36 87° 116° (ESE) 11:31:14 145.990 - 145.960
XW-2C 23 Oct 11:26:52 11:28:39 13° 348° (NNW) 11:30:26 145.795 - 145.815
DELFI C3 23 Oct 11:29:34 11:33:31 67° 299° (WNW) 11:37:28 145.870
AO-73 23 Oct 11:30:04 11:34:06 34° 317° (NW) 11:38:02 145.935
EO-79 23 Oct 11:32:01 11:36:11 47° 258° (WSW) 11:40:22 145.935-145.965
TIGRISAT 23 Oct 11:34:35 11:37:00 14° 287° (WNW) 11:39:26 435.000
POLYITAN 1 23 Oct 11:37:48 11:41:57 44° 260° (W) 11:46:06 437.675
FO-29 23 Oct 11:38:47 11:40:19 11° 305° (NW) 11:41:52 435.910
BEESAT 3 23 Oct 11:40:48 11:42:18 12° 125° (SE) 11:43:47 437.485
Max Valier Satellite 23 Oct 11:41:34 11:45:15 63° 299° (WNW) 11:48:55 145.860
ESTCUBE 1 23 Oct 11:44:16 11:48:27 36° 96° (E) 11:52:36 437.505/2401.250
SPROUT 23 Oct 11:44:30 11:47:34 19° 82° (E) 11:50:38 437.525
PCSat 23 Oct 11:48:03 11:53:28 70° 175° (S) 11:58:54 145.827
CUBEBUG 2 23 Oct 11:53:19 11:57:01 23° 335° (NNW) 12:00:40 437.445
ZACube-1 23 Oct 11:54:17 11:58:07 28° 323° (NW) 12:01:50 437.345
CUTE 1.7 + AOD 2 23 Oct 11:54:27 11:57:17 18° 340° (NNW) 12:00:06 437.475
SEEDS 23 Oct 11:54:59 11:57:56 19° 335° (NNW) 12:00:52 437.485
NANOSAT C BR1 23 Oct 11:58:20 12:02:19 36° 264° (W) 12:06:18 145.865
QB50P2 23 Oct 11:58:50 12:02:44 33° 266° (W) 12:06:40 145.880/145.840
BUGSAT 1 23 Oct 12:00:32 12:04:47 72° 251° (WSW) 12:09:05 437.445
KAITUO 1B 23 Oct 12:01:01 12:02:30 12° 354° (N) 12:03:59 145.475/437.950
CUTE-I 23 Oct 12:01:29 12:05:44 25° 353° (N) 12:10:01 437.470
LO-87 23 Oct 12:02:23 12:05:59 52° 104° (ESE) 12:09:34 145.935 - 145.965
RS-15 23 Oct 12:03:51 12:08:50 14° 279° (W) 12:13:44 29.354- 29.394
Oscar 19 23 Oct 12:04:33 12:09:44 89° 68° (ENE) 12:14:56 437.125/150
DUCHIFAT 1 23 Oct 12:07:11 12:11:07 35° 264° (W) 12:15:04 145.980
XW-2F 23 Oct 12:08:30 12:10:01 12° 358° (N) 12:11:32 145.980 - 146.000
AAUSAT CUBESAT 2 23 Oct 12:08:32 12:11:36 20° 331° (NNW) 12:14:40 437.432
NUDT-PHONESAT 23 Oct 12:09:29 12:10:53 12° 356° (N) 12:12:18 437.300
DOVE 4 23 Oct 12:10:34 12:13:49 19° 12° (NNE) 12:17:13 437.250
AO-7 23 Oct 12:13:00 12:21:10 65° 36° (NE) 12:29:22 .
DX 1 23 Oct 12:15:42 12:16:55 11° 72° (ENE) 12:18:10 434.975-435.025
LilacSat-2 23 Oct 12:20:43 12:22:20 12° 2° (N) 12:23:57 437.200
AIST 2D 23 Oct 12:21:51 12:23:34 13° 280° (W) 12:25:19 435.315
XW-2D 23 Oct 12:23:25 12:24:58 12° 3° (N) 12:26:33 145.860 - 145.880
UWE-3 23 Oct 12:24:22 12:27:50 21° 337° (NNW) 12:31:16 435.000/436.395/437.385
Oscar 11 23 Oct 12:25:08 12:28:41 25° 326° (NW) 12:32:13 .
HO-68 23 Oct 12:28:36 12:35:09 40° 347° (NNW) 12:41:43 435.675
M-CUBED/EXP-1 PRIME 23 Oct 12:31:40 12:34:46 39° 247° (WSW) 12:37:57 437.505
UKube-1 23 Oct 12:32:47 12:33:43 11° 72° (ENE) 12:34:39 .
XW-2B 23 Oct 12:36:48 12:38:24 12° 5° (N) 12:40:01 145.730 - 145.750
ITAMSAT 1 23 Oct 12:44:51 12:49:48 45° 43° (NE) 12:54:47 435.822/435.867
SO-50 23 Oct 12:47:21 12:51:20 30° 213° (SSW) 12:55:20 436.795
XW-2A 23 Oct 12:50:23 12:51:28 11° 345° (NNW) 12:52:32 145.665 - 145.685
VELOX 1 23 Oct 12:55:15 12:59:21 34° 96° (E) 13:03:25 145.980
EO-88 23 Oct 12:57:47 13:01:00 30° 314° (NW) 13:04:12 145.990 - 145.960
YUBILEINY 23 Oct 12:58:36 13:06:50 42° 331° (NNW) 13:15:08 435.215
XW-2C 23 Oct 12:59:50 13:01:36 13° 11° (NNE) 13:03:22 145.795 - 145.815
Gurwin Techsat 1B 23 Oct 13:03:23 13:08:41 63° 253° (WSW) 13:14:00 435.225
DELFI C3 23 Oct 13:04:32 13:07:50 25° 321° (NW) 13:11:07 145.870
AO-73 23 Oct 13:06:14 13:09:25 19° 340° (NNW) 13:12:33 145.935
BEESAT 2 23 Oct 13:07:59 13:10:42 17° 133° (SE) 13:13:25 435.950
EO-79 23 Oct 13:10:22 13:12:59 16° 281° (WNW) 13:15:36 145.935-145.965
AO-85 23 Oct 13:11:08 13:13:26 15° 128° (SE) 13:15:49 145.980
BEESAT 3 23 Oct 13:15:22 13:18:46 27° 147° (SSE) 13:22:11 437.485
Max Valier Satellite 23 Oct 13:15:38 13:18:37 23° 321° (NW) 13:21:35 145.860
POLYITAN 1 23 Oct 13:16:23 13:18:49 15° 283° (WNW) 13:21:16 437.675
SPROUT 23 Oct 13:20:05 13:24:22 57° 105° (ESE) 13:28:37 437.525
ESTCUBE 1 23 Oct 13:21:09 13:25:39 76° 298° (WNW) 13:30:09 437.505/2401.250
50 SAT 23 Oct 13:27:40 13:30:22 23° 92° (E) 13:33:04 437.505
CUBEBUG 2 23 Oct 13:29:14 13:32:25 18° 358° (N) 13:35:35 437.445
CUTE 1.7 + AOD 2 23 Oct 13:29:29 13:31:53 15° 3° (N) 13:34:18 437.475
SEEDS 23 Oct 13:30:06 13:32:26 15° 359° (N) 13:34:46 437.485
ZACube-1 23 Oct 13:30:20 13:33:20 18° 347° (NNW) 13:36:19 437.345
PCSat 23 Oct 13:31:19 13:36:41 62° 199° (SSW) 13:42:03 145.827
KAITUO 1B 23 Oct 13:33:23 13:35:16 14° 17° (NNE) 13:37:09 145.475/437.950
LO-87 23 Oct 13:35:55 13:39:24 43° 306° (NW) 13:42:53 145.935 - 145.965
BUGSAT 1 23 Oct 13:37:27 13:40:51 23° 273° (W) 13:44:16 437.445
NANOSAT C BR1 23 Oct 13:37:33 13:39:15 12° 286° (WNW) 13:40:58 145.865
QB50P2 23 Oct 13:38:44 13:39:52 11° 289° (WNW) 13:41:00 145.880/145.840
CUTE-I 23 Oct 13:40:11 13:44:37 27° 17° (NNE) 13:49:03 437.470
XW-2F 23 Oct 13:40:47 13:42:55 15° 21° (NNE) 13:45:05 145.980 - 146.000
NUDT-PHONESAT 23 Oct 13:41:37 13:43:32 14° 18° (NNE) 13:45:28 437.300
AAUSAT CUBESAT 2 23 Oct 13:43:37 13:45:55 15° 354° (N) 13:48:13 437.432
Oscar 19 23 Oct 13:44:57 13:49:39 34° 266° (W) 13:54:23 437.125/150
DOVE 4 23 Oct 13:46:33 13:50:26 29° 35° (NE) 13:54:32 437.250
DUCHIFAT 1 23 Oct 13:46:35 13:48:03 11° 287° (WNW) 13:49:32 145.980
DX 1 23 Oct 13:50:29 13:54:29 33° 96° (E) 13:58:27 434.975-435.025
LilacSat-2 23 Oct 13:53:00 13:55:27 16° 25° (NNE) 13:57:52 437.200
XW-2D 23 Oct 13:55:35 13:57:59 16° 25° (NNE) 14:00:23 145.860 - 145.880
MOZHAYETS 4 23 Oct 13:57:58 14:00:15 13° 73° (ENE) 14:02:32
UWE-3 23 Oct 14:00:03 14:03:04 17° 0° (N) 14:06:03 435.000/436.395/437.385
Oscar 11 23 Oct 14:01:00 14:03:45 17° 349° (N) 14:06:30 .
AO-7 23 Oct 14:05:42 14:14:02 75° 242° (WSW) 14:22:24 .
UKube-1 23 Oct 14:07:11 14:11:06 32° 95° (E) 14:15:01 .
XW-2B 23 Oct 14:08:54 14:11:28 17° 28° (NNE) 14:14:00 145.730 - 145.750
M-CUBED/EXP-1 PRIME 23 Oct 14:09:17 14:10:10 11° 269° (W) 14:11:02 437.505
HO-68 23 Oct 14:15:11 14:21:45 40° 13° (NNE) 14:28:19 435.675
XW-2A 23 Oct 14:22:29 14:22:57 10° 8° (N) 14:23:26 145.665 - 145.685
ITAMSAT 1 23 Oct 14:23:52 14:29:07 82° 246° (WSW) 14:34:24 435.822/435.867
SO-50 23 Oct 14:28:18 14:30:39 14° 235° (SW) 14:33:03 436.795
EO-88 23 Oct 14:31:40 14:33:48 15° 337° (NNW) 14:35:56 145.990 - 145.960
VELOX 1 23 Oct 14:31:44 14:36:12 79° 299° (WNW) 14:40:40 145.980
XW-2C 23 Oct 14:31:53 14:34:43 20° 34° (NE) 14:37:33 145.795 - 145.815
DELFI C3 23 Oct 14:39:18 14:41:36 15° 344° (NNW) 14:43:54 145.870
AO-73 23 Oct 14:41:36 14:44:25 17° 3° (N) 14:47:12 145.935
BEESAT 2 23 Oct 14:43:53 14:47:35 34° 156° (SSE) 14:51:18 435.950
Gurwin Techsat 1B 23 Oct 14:45:23 14:49:39 24° 276° (W) 14:53:56 435.225
AO-85 23 Oct 14:49:12 14:52:48 32° 151° (SSE) 14:56:37 145.980
Max Valier Satellite 23 Oct 14:49:36 14:51:28 13° 344° (NNW) 14:53:20 145.860
BEESAT 3 23 Oct 14:51:54 14:55:43 42° 170° (S) 14:59:33 437.485
SPROUT 23 Oct 14:56:07 15:00:18 49° 307° (NW) 15:04:27 437.525
ESTCUBE 1 23 Oct 14:58:07 15:02:05 31° 321° (NW) 15:06:03 437.505/2401.250
YUBILEINY 23 Oct 14:58:13 15:06:09 36° 3° (N) 15:14:08 435.215
50 SAT 23 Oct 14:59:45 15:03:05 87° 295° (WNW) 15:06:25 437.505
ITUPSAT 1 23 Oct 14:59:53 15:03:50 24° 87° (E) 15:07:45 437.325
CUTE 1.7 + AOD 2 23 Oct 15:03:28 15:06:34 20° 27° (NNE) 15:09:39 437.475
SEEDS 23 Oct 15:04:04 15:06:54 18° 22° (NNE) 15:09:45 437.485
CUBEBUG 2 23 Oct 15:04:12 15:07:47 22° 22° (NNE) 15:11:21 437.445
KAITUO 1B 23 Oct 15:05:17 15:08:17 24° 39° (NE) 15:11:17 145.475/437.950
ZACube-1 23 Oct 15:05:25 15:08:21 17° 10° (N) 15:11:17 437.345
LO-87 23 Oct 15:09:35 15:12:11 19° 328° (NNW) 15:14:46 145.935 - 145.965
XW-2F 23 Oct 15:12:56 15:16:09 27° 43° (NE) 15:19:22 145.980 - 146.000
BEESAT 23 Oct 15:12:57 15:17:07 28° 90° (E) 15:21:15 436.000
NUDT-PHONESAT 23 Oct 15:13:24 15:16:27 25° 41° (NE) 15:19:30 437.300
PCSat 23 Oct 15:14:36 15:19:33 36° 223° (SW) 15:24:29 145.827
AAUSAT CUBESAT 2 23 Oct 15:17:32 15:20:08 16° 18° (NNE) 15:22:44 437.432
CUTE-I 23 Oct 15:18:45 15:23:47 43° 41° (NE) 15:28:51 437.470
DOVE 4 23 Oct 15:23:11 15:27:36 66° 58° (ENE) 15:32:19 437.250
LilacSat-2 23 Oct 15:25:28 15:28:55 33° 48° (NE) 15:32:21 437.200
DX 1 23 Oct 15:26:42 15:31:06 81° 298° (WNW) 15:35:30 434.975-435.025
XW-2D 23 Oct 15:27:56 15:31:21 33° 48° (NE) 15:34:46 145.860 - 145.880
Oscar 19 23 Oct 15:28:20 15:30:35 13° 290° (WNW) 15:32:51 437.125/150
MOZHAYETS 4 23 Oct 15:34:22 15:38:43 39° 96° (E) 15:43:02
UWE-3 23 Oct 15:34:47 15:38:18 22° 24° (NNE) 15:41:47 435.000/436.395/437.385
Oscar 11 23 Oct 15:35:53 15:38:39 17° 13° (NNE) 15:41:26 .
XW-2B 23 Oct 15:41:23 15:44:54 37° 51° (NE) 15:48:25 145.730 - 145.750
UKube-1 23 Oct 15:43:13 15:47:35 83° 298° (WNW) 15:51:56 .
XW-2A 23 Oct 15:52:30 15:54:34 15° 30° (NNE) 15:56:38 145.665 - 145.685
CUBESAT XI-V 23 Oct 15:54:58 15:58:47 25° 87° (E) 16:02:34 437.345
AO-7 23 Oct 16:00:36 16:08:08 37° 268° (W) 16:15:43 .
HO-68 23 Oct 16:01:38 16:08:38 57° 39° (NE) 16:15:40 435.675
XW-2C 23 Oct 16:04:39 16:08:19 49° 56° (ENE) 16:11:59 145.795 - 145.815
ITAMSAT 1 23 Oct 16:04:42 16:09:19 31° 269° (W) 16:13:57 435.822/435.867
EO-88 23 Oct 16:04:59 16:06:17 12° 359° (N) 16:07:35 145.990 - 145.960
VELOX 1 23 Oct 16:08:21 16:12:18 32° 321° (NW) 16:16:15 145.980
DELFI C3 23 Oct 16:13:06 16:15:07 14° 7° (N) 16:17:10 145.870
AO-73 23 Oct 16:16:02 16:19:28 22° 27° (NNE) 16:22:53 145.935
BEESAT 2 23 Oct 16:20:56 16:24:50 45° 179° (S) 16:28:45 435.950
Max Valier Satellite 23 Oct 16:22:33 16:24:04 12° 7° (N) 16:25:34 145.860
AO-85 23 Oct 16:28:42 16:32:38 45° 175° (S) 16:36:51 145.980
BEESAT 3 23 Oct 16:29:02 16:32:51 41° 192° (SSW) 16:36:39 437.485
SPROUT 23 Oct 16:32:07 16:35:32 23° 330° (NNW) 16:38:57 437.525
50 SAT 23 Oct 16:32:18 16:35:06 26° 316° (NW) 16:37:54 437.505
ESTCUBE 1 23 Oct 16:34:45 16:37:56 19° 344° (NNW) 16:41:07 437.505/2401.250
KKS-1 23 Oct 16:35:38 16:38:59 20° 84° (E) 16:42:20 437.445
ITUPSAT 1 23 Oct 16:37:39 16:42:29 70° 110° (ESE) 16:47:17 437.325
CUTE 1.7 + AOD 2 23 Oct 16:37:41 16:41:38 40° 50° (NE) 16:45:36 437.475
SEEDS 23 Oct 16:37:58 16:41:44 33° 45° (NE) 16:45:29 437.485
KAITUO 1B 23 Oct 16:38:08 16:41:49 64° 61° (ENE) 16:45:31 145.475/437.950
CUBEBUG 2 23 Oct 16:39:07 16:43:30 37° 45° (NE) 16:47:52 437.445
ZACube-1 23 Oct 16:39:48 16:43:33 26° 34° (NNE) 16:47:15 437.345
LO-87 23 Oct 16:43:02 16:44:30 12° 351° (N) 16:45:59 145.935 - 145.965
XW-2F 23 Oct 16:46:10 16:49:56 81° 65° (ENE) 16:53:43 145.980 - 146.000
NUDT-PHONESAT 23 Oct 16:46:13 16:49:55 70° 63° (ENE) 16:53:36 437.300
BEESAT 23 Oct 16:50:43 16:55:35 81° 113° (ESE) 17:00:24 436.000
AAUSAT CUBESAT 2 23 Oct 16:51:06 16:54:38 28° 40° (NE) 16:58:10 437.432
YUBILEINY 23 Oct 16:56:59 17:05:22 45° 34° (NNE) 17:13:47 435.215
STARS 23 Oct 16:58:13 17:01:10 17° 81° (E) 17:04:07 437.465
CUTE-I 23 Oct 16:58:15 17:03:38 86° 243° (WSW) 17:09:03 437.470
PCSat 23 Oct 16:58:27 17:01:41 16° 247° (WSW) 17:04:54 145.827
LilacSat-2 23 Oct 16:59:10 17:02:59 79° 248° (WSW) 17:06:49 437.200
DOVE 4 23 Oct 17:01:22 17:05:36 42° 263° (W) 17:10:06 437.250
XW-2D 23 Oct 17:01:33 17:05:21 79° 250° (WSW) 17:09:08 145.860 - 145.880
DX 1 23 Oct 17:03:03 17:06:58 33° 320° (NW) 17:10:53 434.975-435.025
UWE-3 23 Oct 17:09:33 17:13:55 39° 47° (NE) 17:18:13 435.000/436.395/437.385
Oscar 11 23 Oct 17:10:09 17:13:45 26° 36° (NE) 17:17:22 .
MOZHAYETS 4 23 Oct 17:11:38 17:16:15 73° 300° (WNW) 17:20:49
XW-2B 23 Oct 17:15:12 17:18:59 66° 252° (WSW) 17:22:46 145.730 - 145.750
UKube-1 23 Oct 17:19:24 17:23:17 33° 320° (NW) 17:27:11 .
XW-2A 23 Oct 17:23:26 17:26:35 35° 52° (NE) 17:29:43 145.665 - 145.685
CUBESAT XI-V 23 Oct 17:32:16 17:36:55 74° 110° (ESE) 17:41:32 437.345
EO-88 23 Oct 17:36:41 17:38:45 15° 22° (NNE) 17:40:49 145.990 - 145.960
XW-2C 23 Oct 17:38:55 17:42:35 47° 258° (WSW) 17:46:16 145.795 - 145.815
VELOX 1 23 Oct 17:44:39 17:47:49 20° 344° (NNW) 17:51:00 145.980
DELFI C3 23 Oct 17:45:53 17:48:45 20° 30° (NNE) 17:51:39 145.870
ITAMSAT 1 23 Oct 17:48:58 17:50:34 11° 294° (WNW) 17:52:08 435.822/435.867
HO-68 23 Oct 17:49:04 17:56:18 80° 244° (WSW) 18:03:35 435.675
AO-73 23 Oct 17:50:40 17:54:56 42° 49° (NE) 17:59:10 145.935
Max Valier Satellite 23 Oct 17:54:14 17:56:46 18° 29° (NNE) 17:59:18 145.860
BEESAT 2 23 Oct 17:58:22 18:02:07 36° 201° (SSW) 18:05:52 435.950
AO-7 23 Oct 17:58:58 18:03:48 16° 297° (WNW) 18:08:40 .
50 SAT 23 Oct 18:04:59 18:06:34 13° 338° (NNW) 18:08:09 437.505
BEESAT 3 23 Oct 18:06:26 18:09:47 25° 215° (SW) 18:13:06 437.485
SPROUT 23 Oct 18:07:36 18:10:20 17° 353° (N) 18:13:03 437.525
AO-85 23 Oct 18:08:39 18:12:35 39° 198° (SSW) 18:16:47 145.980
ESTCUBE 1 23 Oct 18:10:31 18:13:32 18° 8° (N) 18:16:33 437.505/2401.250
KKS-1 23 Oct 18:11:57 18:16:26 60° 107° (ESE) 18:20:54 437.445
KAITUO 1B 23 Oct 18:12:39 18:16:05 34° 263° (W) 18:19:31 145.475/437.950
SEEDS 23 Oct 18:12:58 18:17:09 88° 240° (WSW) 18:21:22 437.485
STRAND 1 23 Oct 18:13:01 18:16:07 16° 74° (ENE) 18:19:12 437.568
CUTE 1.7 + AOD 2 23 Oct 18:13:09 18:17:22 70° 252° (WSW) 18:21:36 437.475
ZACube-1 23 Oct 18:14:45 18:19:14 56° 56° (NE) 18:23:39 437.345
CUBEBUG 2 23 Oct 18:15:03 18:19:51 89° 248° (WSW) 18:24:39 437.445
LO-87 23 Oct 18:15:03 18:16:41 13° 13° (NNE) 18:18:19 145.935 - 145.965
ITUPSAT 1 23 Oct 18:15:38 18:20:16 47° 313° (NW) 18:24:51 437.325
NUDT-PHONESAT 23 Oct 18:20:44 18:24:05 31° 265° (W) 18:27:27 437.300
XW-2F 23 Oct 18:21:12 18:24:29 28° 267° (W) 18:27:45 145.980 - 146.000
AAUSAT CUBESAT 2 23 Oct 18:25:35 18:29:41 74° 64° (ENE) 18:33:49 437.432
BEESAT 23 Oct 18:28:40 18:33:11 42° 316° (NW) 18:37:42 436.000
STARS 23 Oct 18:34:10 18:38:32 50° 104° (ESE) 18:42:53 437.465
LilacSat-2 23 Oct 18:34:48 18:37:51 22° 272° (W) 18:40:54 437.200
XW-2D 23 Oct 18:37:06 18:40:06 22° 272° (W) 18:43:07 145.860 - 145.880
DX 1 23 Oct 18:39:06 18:42:15 20° 343° (NNW) 18:45:25 434.975-435.025
CUTE-I 23 Oct 18:39:33 18:44:22 33° 268° (W) 18:49:14 437.470
DOVE 4 23 Oct 18:42:05 18:44:37 15° 287° (WNW) 18:47:12 437.250
Oscar 11 23 Oct 18:45:06 18:49:22 61° 59° (ENE) 18:53:39 .
UWE-3 23 Oct 18:45:27 18:50:10 82° 251° (WSW) 18:54:51 435.000/436.395/437.385
MOZHAYETS 4 23 Oct 18:48:55 18:52:59 31° 322° (NW) 18:57:00
XW-2B 23 Oct 18:51:05 18:53:51 19° 274° (W) 18:56:37 145.730 - 145.750
FO-29 23 Oct 18:52:57 18:56:56 16° 66° (ENE) 19:01:07 435.910
YUBILEINY 23 Oct 18:54:41 19:03:32 78° 63° (ENE) 19:12:24 435.215
UKube-1 23 Oct 18:55:19 18:58:26 20° 343° (NNW) 19:01:33 .
XW-2A 23 Oct 18:55:50 18:59:13 60° 253° (WSW) 19:02:36 145.665 - 145.685
EO-88 23 Oct 19:08:22 19:11:32 28° 44° (NE) 19:14:42 145.990 - 145.960
CUBESAT XI-V 23 Oct 19:09:49 19:14:10 42° 312° (NW) 19:18:31 437.345
XW-2C 23 Oct 19:15:37 19:17:41 14° 280° (W) 19:19:46 145.795 - 145.815
DELFI C3 23 Oct 19:19:05 19:22:50 43° 52° (NE) 19:26:35 145.870
VELOX 1 23 Oct 19:20:07 19:23:05 18° 7° (N) 19:26:05 145.980
Max Valier Satellite 23 Oct 19:26:24 19:29:53 38° 52° (NE) 19:33:22 145.860
AO-73 23 Oct 19:26:30 19:31:04 72° 252° (WSW) 19:35:34 145.935
BEESAT 2 23 Oct 19:36:08 19:39:04 19° 224° (SW) 19:41:59 435.950
HO-68 23 Oct 19:38:30 19:45:04 37° 269° (W) 19:51:41 435.675
SPROUT 23 Oct 19:42:04 19:45:01 18° 17° (NNE) 19:47:58 437.525
BEESAT 3 23 Oct 19:45:11 19:46:13 11° 237° (WSW) 19:47:14 437.485
ESTCUBE 1 23 Oct 19:45:34 19:49:16 26° 31° (NNE) 19:52:58 437.505/2401.250
LO-87 23 Oct 19:46:18 19:49:04 21° 36° (NE) 19:51:51 145.935 - 145.965
KKS-1 23 Oct 19:48:40 19:53:01 49° 309° (NW) 19:57:21 437.445
AO-85 23 Oct 19:48:54 19:52:16 22° 221° (SW) 19:55:48 145.980
SEEDS 23 Oct 19:49:49 19:53:23 27° 270° (W) 19:56:59 437.485
CUTE 1.7 + AOD 2 23 Oct 19:50:37 19:53:56 22° 274° (W) 19:57:15 437.475
KAITUO 1B 23 Oct 19:50:41 19:51:11 10° 286° (WNW) 19:51:40 145.475/437.950
ZACube-1 23 Oct 19:51:10 19:55:39 51° 258° (WSW) 20:00:05 437.345
STRAND 1 23 Oct 19:51:46 19:56:42 42° 98° (E) 20:01:37 437.568
CUBEBUG 2 23 Oct 19:52:46 19:57:01 31° 269° (W) 20:01:17 437.445
ITUPSAT 1 23 Oct 19:53:25 19:57:21 26° 336° (NNW) 20:01:17 437.325
AAUSAT CUBESAT 2 23 Oct 20:01:45 20:05:31 33° 265° (W) 20:09:18 437.432
BEESAT 23 Oct 20:06:20 20:10:09 24° 339° (NNW) 20:13:58 436.000
STARS 23 Oct 20:10:38 20:15:01 56° 306° (NW) 20:19:23 437.465
DX 1 23 Oct 20:14:21 20:17:16 18° 7° (N) 20:20:14 434.975-435.025
O/OREOS (USA 219) 23 Oct 20:21:05 20:24:57 27° 116° (ESE) 20:28:49 437.305
Oscar 11 23 Oct 20:21:35 20:25:44 43° 261° (W) 20:29:55 .
UWE-3 23 Oct 20:23:12 20:27:15 28° 271° (W) 20:31:17 435.000/436.395/437.385
CUTE-I 23 Oct 20:23:57 20:26:10 12° 293° (WNW) 20:28:23 437.470
MOZHAYETS 4 23 Oct 20:25:51 20:29:08 20° 346° (NNW) 20:32:26
XW-2A 23 Oct 20:30:25 20:32:36 16° 275° (W) 20:34:46 145.665 - 145.685
UKube-1 23 Oct 20:30:25 20:33:18 18° 6° (N) 20:36:11 .
FO-29 23 Oct 20:37:53 20:43:57 38° 90° (E) 20:50:39 435.910
EO-88 23 Oct 20:41:14 20:44:53 86° 65° (ENE) 20:48:34 145.990 - 145.960
CUBESAT XI-V 23 Oct 20:47:12 20:50:46 23° 335° (NNW) 20:54:20 437.345
YUBILEINY 23 Oct 20:51:45 21:00:11 54° 270° (W) 21:08:40 435.215
DELFI C3 23 Oct 20:53:40 20:57:34 59° 255° (WSW) 21:01:29 145.870
VELOX 1 23 Oct 20:54:51 20:58:28 25° 31° (NNE) 21:02:06 145.980
Max Valier Satellite 23 Oct 20:59:55 21:03:39 62° 254° (WSW) 21:07:21 145.860
AO-73 23 Oct 21:04:19 21:08:00 24° 274° (W) 21:11:41 145.935
50 SAT 23 Oct 21:07:16 21:08:53 13° 23° (NNE) 21:10:29 437.505
PRISM 23 Oct 21:13:00 21:14:29 12° 75° (ENE) 21:15:58 437.425
SPROUT 23 Oct 21:16:11 21:19:57 30° 40° (NE) 21:23:45 437.525
UNISAT 6 23 Oct 21:17:14 21:20:55 22° 84° (E) 21:24:32 437.425
LO-87 23 Oct 21:18:23 21:21:56 52° 58° (ENE) 21:25:31 145.935 - 145.965
ESTCUBE 1 23 Oct 21:21:05 21:25:28 54° 54° (NE) 21:29:52 437.505/2401.250
KKS-1 23 Oct 21:25:16 21:28:54 25° 332° (NNW) 21:32:33 437.445
ZACube-1 23 Oct 21:29:50 21:32:56 18° 281° (W) 21:36:00 437.345
ITUPSAT 1 23 Oct 21:30:31 21:34:04 21° 360° (N) 21:37:35 437.325
TIGRISAT 23 Oct 21:30:54 21:34:47 25° 86° (E) 21:38:34 435.000
HO-68 23 Oct 21:31:05 21:35:12 16° 296° (WNW) 21:39:18 435.675
STRAND 1 23 Oct 21:31:06 21:36:18 75° 301° (WNW) 21:41:28 437.568
CUBEBUG 2 23 Oct 21:33:45 21:35:09 11° 293° (WNW) 21:36:34 437.445
AAUSAT CUBESAT 2 23 Oct 21:41:10 21:42:14 11° 288° (WNW) 21:43:18 437.432
BEESAT 23 Oct 21:43:16 21:46:47 21° 3° (N) 21:50:17 436.000
STARS 23 Oct 21:47:04 21:50:47 26° 329° (NNW) 21:54:29 437.465
DX 1 23 Oct 21:48:51 21:52:25 25° 30° (NNE) 21:55:59 434.975-435.025
O/OREOS (USA 219) 23 Oct 21:59:14 22:03:49 66° 139° (SE) 22:08:25 437.305
Oscar 11 23 Oct 22:00:34 22:03:00 15° 284° (WNW) 22:05:25 .
MOZHAYETS 4 23 Oct 22:01:53 22:05:05 19° 9° (N) 22:08:16
UKube-1 23 Oct 22:04:46 22:08:16 24° 29° (NNE) 22:11:46 .
EO-88 23 Oct 22:15:54 22:18:59 25° 268° (W) 22:22:06 145.990 - 145.960
FO-29 23 Oct 22:23:17 22:29:47 83° 113° (ESE) 22:37:09 435.910
CUBESAT XI-V 23 Oct 22:23:53 22:26:57 18° 359° (N) 22:30:02 437.345
RS-15 23 Oct 22:24:03 22:31:39 19° 92° (E) 22:39:09 29.354- 29.394
VELOX 1 23 Oct 22:30:01 22:34:19 53° 53° (NE) 22:38:38 145.980
DELFI C3 23 Oct 22:30:25 22:33:07 18° 277° (W) 22:35:51 145.870
Max Valier Satellite 23 Oct 22:35:34 22:38:11 18° 275° (W) 22:40:47 145.860
50 SAT 23 Oct 22:37:32 22:40:21 26° 45° (NE) 22:43:11 437.505
PRISM 23 Oct 22:47:07 22:50:57 36° 98° (E) 22:54:48 437.425
